Location: Newark
(23.1300°N, 73.6109°E)
Time: 16:57:23
(UTC+00:00)

NOAA 18 - Pass Details

Date: 07 July 2020
Orbit: 839 x 862 km, 99.0° (Epoch: 05 August)

Event Time Altitude Azimuth Distance (km) Brightness Sun altitude
Exits shadow 17:01:28 26° 264° (W) 1,615 6.8 -34.6°
Drops below altitude 10° 17:05:52 10° 317° (NW) 2,492 8.4 -35.2°
Sets 17:08:38 0° 330° (NNW) 3,428 9.4 -35.6°
